Date String (YYYY-MM-DD hh:mm:ss) UTC,Instrument flags,Ambient pressure (hPa),Sample flow (lpm),Bypass flow (lpm),Sample temperature (°C),Ambient temperature (°C),ASC tube jacket temperature (°C),LED temperature (°C),Box temperature (°C),Sample RH (%),Span deviation,Mass concentration (μg/m³),Mass concentration (μg/m³),Mass concentration (μg/m³)
DateTimeUTC,F1_M11,P_M11,Q1_M11,Q2_M11,T1_M11,T2_M11,T3_M11,T4_M11,T5_M11,U1_M11,ZSPAN_M11,X0_M11,X2_M11,X1_M11
2022-11-02 22:10:00,,0817.3,4.99,0.00,29.9,28.7,00.0,38.6,31.7,06.8,0000.0,0009.29,0002.63,0001.58
2022-11-02 22:11:00,,0817.3,4.99,0.00,29.9,28.8,00.0,38.6,31.8,06.9,0000.0,0009.14,0002.65,0001.58
2022-11-02 22:12:00,,0817.3,5.00,0.00,29.9,28.9,00.0,38.6,31.9,06.9,0000.0,0008.19,0002.64,0001.58
2022-11-02 22:13:00,,0817.3,5.00,0.00,30.0,29.0,00.0,38.6,31.9,06.8,0000.0,0007.22,0002.55,0001.58
2022-11-02 22:14:00,,0817.3,5.00,0.00,30.0,29.0,00.0,38.7,32.0,06.8,0000.0,0007.06,0002.54,0001.57
2022-11-02 22:15:00,,0817.3,4.99,0.00,30.0,27.7,00.0,38.6,31.8,06.8,0000.0,0006.47,0002.56,0001.57
2022-11-02 22:16:00,,0817.3,5.01,0.00,29.9,26.4,00.0,38.6,31.5,06.8,0000.0,0005.94,0002.52,0001.56
2022-11-02 22:17:00,,0817.3,5.00,0.00,29.8,26.4,00.0,38.5,31.5,06.9,0000.0,0006.26,0002.45,0001.57
2022-11-02 22:18:00,,0817.3,4.99,0.00,29.8,26.7,00.0,38.5,31.4,06.9,0000.0,0007.18,0002.43,0001.56
2022-11-02 22:19:00,,0817.3,5.01,0.00,29.7,27.1,00.0,38.5,31.4,07.0,0000.0,0007.46,0002.41,0001.56
2022-11-02 22:20:00,,0817.3,5.00,0.00,29.7,27.4,00.0,38.5,31.4,07.0,0000.0,0007.46,0002.43,0001.55
2022-11-02 22:21:00,,0817.3,4.99,0.00,29.7,27.7,00.0,38.5,31.5,07.0,0000.0,0007.53,0002.44,0001.55
2022-11-02 22:22:00,,0817.3,5.00,0.00,29.7,28.0,00.0,38.4,31.6,07.0,0000.0,0007.64,0002.43,0001.54
2022-11-02 22:23:00,,0817.3,5.01,0.00,29.7,28.2,00.0,38.5,31.6,07.0,0000.0,0007.90,0002.44,0001.54
2022-11-02 22:24:00,,0817.3,4.99,0.00,29.8,28.4,00.0,38.5,31.7,07.0,0000.0,0009.09,0002.50,0001.54
2022-11-02 22:25:00,,0817.3,4.99,0.00,29.8,28.6,00.0,38.5,31.7,07.0,0000.0,0009.87,0002.58,0001.55
2022-11-02 22:26:00,,0817.2,5.00,0.00,29.8,28.7,00.0,38.5,31.7,06.9,0000.0,0010.16,0002.59,0001.56
2022-11-02 22:27:00,,0817.1,5.01,0.00,29.9,28.9,00.0,38.5,31.8,06.9,0000.0,0009.82,0002.60,0001.56
2022-11-02 22:28:00,,0817.1,5.00,0.00,29.9,28.7,00.0,38.5,31.8,06.9,0000.0,0009.37,0002.57,0001.55
2022-11-02 22:29:00,,0817.1,4.98,0.00,29.9,27.4,00.0,38.5,31.6,06.9,0000.0,0008.87,0002.56,0001.54
2022-11-02 22:30:00,,0817.2,5.02,0.00,29.8,26.3,00.0,38.4,31.4,07.0,0000.0,0008.46,0002.52,0001.56
2022-11-02 22:31:00,,0817.1,4.99,0.00,29.7,26.3,00.0,38.3,31.3,07.1,0000.0,0008.48,0002.45,0001.55
2022-11-02 22:32:00,,0817.1,5.02,0.00,29.6,26.6,00.0,38.3,31.2,07.0,0000.0,0009.11,0002.48,0001.57
2022-11-02 22:33:00,,0817.1,4.99,0.00,29.5,27.0,00.0,38.3,31.3,07.1,0000.0,0009.12,0002.52,0001.57
2022-11-02 22:34:00,,0817.1,5.00,0.00,29.5,27.3,00.0,38.3,31.3,07.1,0000.0,0009.54,0002.53,0001.56
2022-11-02 22:35:00,,0817.1,5.01,0.00,29.5,27.6,00.0,38.3,31.3,07.1,0000.0,0008.69,0002.56,0001.56
2022-11-02 22:36:00,,0817.2,5.01,0.00,29.5,27.9,00.0,38.3,31.4,07.1,0000.0,0008.10,0002.48,0001.55
2022-11-02 22:37:00,,0817.2,4.99,0.00,29.6,28.2,00.0,38.3,31.5,07.0,0000.0,0007.57,0002.42,0001.54
2022-11-02 22:38:00,,0817.2,5.00,0.00,29.6,28.4,00.0,38.3,31.5,07.0,0000.0,0007.95,0002.41,0001.54
2022-11-02 22:39:00,,0817.2,5.00,0.00,29.6,28.5,00.0,38.3,31.6,07.0,0000.0,0008.90,0002.37,0001.54
2022-11-02 22:40:00,,0817.3,5.00,0.00,29.7,28.7,00.0,38.4,31.7,07.0,0000.0,0009.42,0002.38,0001.53
2022-11-02 22:41:00,,0817.3,5.00,0.00,29.7,28.8,00.0,38.4,31.7,07.0,0000.0,0011.29,0002.47,0001.53
2022-11-02 22:42:00,,0817.2,5.01,0.00,29.8,28.9,00.0,38.4,31.8,07.0,0000.0,0012.31,0002.52,0001.54
2022-11-02 22:43:00,,0817.2,4.98,0.00,29.8,27.9,00.0,38.4,31.7,06.9,0000.0,0012.44,0002.53,0001.53
2022-11-02 22:44:00,,0817.2,5.01,0.00,29.7,26.4,00.0,38.3,31.4,07.0,0000.0,0012.38,0002.52,0001.52
2022-11-02 22:45:00,,0817.2,5.01,0.00,29.7,26.1,00.0,38.3,31.3,07.0,0000.0,0012.53,0002.56,0001.53
2022-11-02 22:46:00,,0817.1,5.00,0.00,29.6,26.4,00.0,38.2,31.2,07.1,0000.0,0011.96,0002.49,0001.54
2022-11-02 22:47:00,,0817.1,5.00,0.00,29.5,26.8,00.0,38.2,31.2,07.1,0000.0,0012.35,0002.54,0001.54
2022-11-02 22:48:00,,0817.1,5.02,0.00,29.5,27.1,00.0,38.2,31.3,07.1,0000.0,0012.79,0002.53,0001.54
2022-11-02 22:49:00,,0817.1,4.99,0.00,29.5,27.5,00.0,38.2,31.3,07.1,0000.0,0012.75,0002.55,0001.56
2022-11-02 22:50:00,,0817.1,5.00,0.00,29.5,27.8,00.0,38.2,31.4,07.1,0000.0,0012.15,0002.57,0001.57
2022-11-02 22:51:00,,0817.1,5.00,0.00,29.5,28.0,00.0,38.2,31.4,07.1,0000.0,0011.11,0002.65,0001.57
2022-11-02 22:52:00,,0817.1,5.00,0.00,29.6,28.2,00.0,38.2,31.5,07.1,0000.0,0010.16,0002.60,0001.58
2022-11-02 22:53:00,,0817.1,5.00,0.00,29.6,28.3,00.0,38.2,31.5,07.1,0000.0,0008.61,0002.55,0001.57
2022-11-02 22:54:00,,0817.1,4.99,0.00,29.6,28.4,00.0,38.3,31.6,07.1,0000.0,0008.00,0002.56,0001.59
2022-11-02 22:55:00,,0817.1,5.00,0.00,29.7,28.6,00.0,38.3,31.6,07.1,0000.0,0009.20,0002.84,0001.61
2022-11-02 22:56:00,,0817.1,5.00,0.00,29.7,28.7,00.0,38.3,31.7,07.1,0000.0,0010.46,0003.15,0001.65
2022-11-02 22:57:00,,0817.0,4.99,0.00,29.8,28.8,00.0,38.3,31.8,07.1,0000.0,0011.06,0003.21,0001.65
2022-11-02 22:58:00,,0817.0,4.99,0.00,29.8,28.8,00.0,38.4,31.8,07.0,0000.0,0010.91,0003.22,0001.67
2022-11-02 22:59:00,,0817.0,5.01,0.00,29.8,27.7,00.0,38.4,31.7,07.0,0000.0,0010.69,0003.21,0001.69
